Date String (YYYY-MM-DD hh:mm:ss) UTC,Instrument flags,Ambient pressure (hPa),Sample flow (lpm),Bypass flow (lpm),Sample temperature (°C),Ambient temperature (°C),ASC tube jacket temperature (°C),LED temperature (°C),Box temperature (°C),Sample RH (%),Span deviation,Mass concentration (μg/m³),Mass concentration (μg/m³),Mass concentration (μg/m³)
DateTimeUTC,F1_M11,P_M11,Q1_M11,Q2_M11,T1_M11,T2_M11,T3_M11,T4_M11,T5_M11,U1_M11,ZSPAN_M11,X2_M11,X0_M11,X1_M11
2023-03-02 17:00:00,,0816.9,5.00,0.00,22.8,21.7,00.0,31.5,24.8,15.0,0000.0,0006.92,0010.70,0006.62
2023-03-02 17:01:00,,0816.9,4.99,0.00,22.9,21.7,00.0,31.5,24.8,14.8,0000.0,0006.92,0010.72,0006.63
2023-03-02 17:02:00,,0816.9,5.01,0.00,22.9,21.7,00.0,31.5,24.8,14.9,0000.0,0006.92,0010.74,0006.64
2023-03-02 17:03:00,,0816.8,5.02,0.00,22.9,21.7,00.0,31.5,24.8,14.9,0000.0,0006.95,0010.72,0006.67
2023-03-02 17:04:00,,0816.9,5.01,0.00,22.9,21.7,00.0,31.5,24.8,14.9,0000.0,0006.97,0010.68,0006.69
2023-03-02 17:05:00,,0816.9,5.01,0.00,22.9,21.7,00.0,31.5,24.8,15.4,0000.0,0007.02,0010.01,0006.73
2023-03-02 17:06:00,,0816.9,4.99,0.00,22.9,21.7,00.0,31.5,24.8,16.0,0000.0,0007.04,0010.02,0006.76
2023-03-02 17:07:00,,0816.8,5.00,0.00,22.9,21.7,00.0,31.5,24.8,15.2,0000.0,0007.06,0010.00,0006.79
2023-03-02 17:08:00,,0816.9,5.00,0.00,22.9,21.7,00.0,31.5,24.8,15.1,0000.0,0007.09,0010.00,0006.83
2023-03-02 17:09:00,,0816.8,4.99,0.00,22.9,21.7,00.0,31.5,24.8,15.0,0000.0,0007.13,0010.02,0006.87
2023-03-02 17:10:00,,0816.8,5.00,0.00,22.9,21.7,00.0,31.5,24.8,14.2,0000.0,0007.16,0009.93,0006.89
2023-03-02 17:11:00,,0816.9,5.01,0.00,22.9,21.7,00.0,31.6,24.8,14.9,0000.0,0007.18,0009.83,0006.89
2023-03-02 17:12:00,,0816.8,5.00,0.00,22.9,21.7,00.0,31.6,24.8,14.6,0000.0,0007.23,0009.89,0006.90
2023-03-02 17:13:00,,0816.9,5.00,0.00,22.9,21.7,00.0,31.6,24.8,14.6,0000.0,0007.27,0009.96,0006.91
2023-03-02 17:14:00,,0816.9,5.00,0.00,22.9,21.8,00.0,31.6,24.8,14.7,0000.0,0007.31,0010.16,0006.92
2023-03-02 17:15:00,,0816.9,5.00,0.00,23.0,21.8,00.0,31.6,24.8,14.8,0000.0,0007.32,0010.25,0006.93
2023-03-02 17:16:00,,0816.9,5.00,0.00,23.0,21.8,00.0,31.6,24.8,15.0,0000.0,0007.33,0010.25,0006.93
2023-03-02 17:17:00,,0816.9,4.99,0.00,23.0,21.8,00.0,31.6,24.8,15.4,0000.0,0007.32,0010.21,0006.93
2023-03-02 17:18:00,,0816.9,5.00,0.00,23.0,21.8,00.0,31.6,24.8,15.6,0000.0,0007.33,0010.19,0006.94
2023-03-02 17:19:00,,0816.9,5.00,0.00,23.0,21.8,00.0,31.6,24.8,15.9,0000.0,0007.32,0010.82,0006.93
2023-03-02 17:20:00,,0816.9,4.99,0.00,23.0,21.8,00.0,31.7,24.8,15.9,0000.0,0007.32,0010.94,0006.93
2023-03-02 17:21:00,,0816.9,5.00,0.00,23.0,21.8,00.0,31.7,24.9,15.6,0000.0,0007.33,0010.93,0006.93
2023-03-02 17:22:00,,0816.9,5.01,0.00,23.0,21.8,00.0,31.7,24.9,15.1,0000.0,0007.35,0011.03,0006.93
2023-03-02 17:23:00,,0816.9,4.99,0.00,23.0,21.8,00.0,31.7,24.9,15.6,0000.0,0007.32,0011.01,0006.93
2023-03-02 17:24:00,,0816.8,4.99,0.00,23.0,21.8,00.0,31.7,24.9,16.1,0000.0,0007.30,0011.03,0006.93
2023-03-02 17:25:00,,0816.9,5.01,0.00,23.0,21.8,00.0,31.7,24.9,16.3,0000.0,0007.30,0010.94,0006.94
2023-03-02 17:26:00,,0817.0,4.98,0.00,23.0,21.9,00.0,31.7,24.9,16.3,0000.0,0007.30,0010.87,0006.94
2023-03-02 17:27:00,,0817.0,5.00,0.00,23.0,21.9,00.0,31.7,24.9,16.4,0000.0,0007.31,0010.89,0006.95
2023-03-02 17:28:00,,0817.2,5.00,0.00,23.1,21.9,00.0,31.7,24.9,15.9,0000.0,0007.32,0010.93,0006.96
2023-03-02 17:29:00,,0817.2,5.01,0.00,23.1,21.9,00.0,31.7,24.9,16.1,0000.0,0007.35,0010.99,0006.98
2023-03-02 17:30:00,,0817.0,5.01,0.00,23.1,21.9,00.0,31.7,24.9,16.6,0000.0,0007.39,0010.46,0007.00
2023-03-02 17:31:00,,0817.0,5.00,0.00,23.1,21.9,00.0,31.7,24.9,16.3,0000.0,0007.43,0010.45,0007.04
2023-03-02 17:32:00,,0817.0,5.00,0.00,23.1,21.9,00.0,31.8,25.0,16.3,0000.0,0007.44,0010.60,0007.05
2023-03-02 17:33:00,,0816.9,5.00,0.00,23.1,21.9,00.0,31.8,25.0,16.2,0000.0,0007.41,0010.49,0007.05
2023-03-02 17:34:00,,0817.0,4.99,0.00,23.1,22.0,00.0,31.8,25.0,16.4,0000.0,0007.40,0010.44,0007.05
2023-03-02 17:35:00,,0817.0,5.00,0.00,23.1,22.0,00.0,31.8,25.0,15.9,0000.0,0007.38,0010.60,0007.04
2023-03-02 17:36:00,,0816.8,4.99,0.00,23.1,22.0,00.0,31.8,25.0,16.3,0000.0,0007.35,0010.57,0007.02
2023-03-02 17:37:00,,0816.7,5.00,0.00,23.1,22.0,00.0,31.8,25.0,16.3,0000.0,0007.37,0010.69,0007.01
2023-03-02 17:38:00,,0816.6,5.01,0.00,23.1,22.0,00.0,31.8,25.0,16.0,0000.0,0007.37,0010.79,0007.00
2023-03-02 17:39:00,,0816.7,5.04,0.00,23.1,21.9,00.0,31.8,25.0,15.8,0000.0,0007.38,0010.79,0007.00
2023-03-02 17:40:00,,0816.7,4.99,0.00,23.2,21.9,00.0,31.8,25.0,16.0,0000.0,0007.38,0010.96,0006.99
2023-03-02 17:41:00,,0816.8,5.01,0.00,23.2,21.9,00.0,31.8,25.0,16.0,0000.0,0007.36,0011.09,0006.96
2023-03-02 17:42:00,,0816.6,5.01,0.00,23.2,21.9,00.0,31.8,25.1,15.4,0000.0,0007.34,0011.27,0006.93
2023-03-02 17:43:00,,0816.6,5.00,0.00,23.2,22.0,00.0,31.8,25.1,15.5,0000.0,0007.33,0011.13,0006.91
2023-03-02 17:44:00,,0816.5,4.99,0.00,23.2,22.0,00.0,31.8,25.1,15.8,0000.0,0007.33,0011.15,0006.91
2023-03-02 17:45:00,,0816.5,5.01,0.00,23.2,22.0,00.0,31.8,25.1,15.6,0000.0,0007.34,0011.29,0006.90
2023-03-02 17:46:00,,0816.5,5.00,0.00,23.2,22.0,00.0,31.9,25.1,15.7,0000.0,0007.34,0011.17,0006.89
2023-03-02 17:47:00,,0816.5,5.01,0.00,23.2,22.0,00.0,31.9,25.1,15.5,0000.0,0007.36,0011.31,0006.87
2023-03-02 17:48:00,,0816.5,5.00,0.00,23.2,22.0,00.0,31.9,25.1,15.9,0000.0,0007.32,0011.14,0006.86
2023-03-02 17:49:00,,0816.6,5.00,0.00,23.2,22.0,00.0,31.9,25.1,15.8,0000.0,0007.30,0011.00,0006.85
2023-03-02 17:50:00,,0816.5,5.00,0.00,23.2,22.0,00.0,31.9,25.1,15.7,0000.0,0007.30,0011.55,0006.82
2023-03-02 17:51:00,,0816.4,4.99,0.00,23.2,22.0,00.0,31.9,25.1,15.5,0000.0,0007.30,0011.69,0006.80
2023-03-02 17:52:00,,0816.5,4.99,0.00,23.3,22.0,00.0,31.9,25.1,15.4,0000.0,0007.30,0011.48,0006.80
2023-03-02 17:53:00,,0816.5,5.01,0.00,23.3,22.0,00.0,31.9,25.1,15.8,0000.0,0007.28,0011.25,0006.80
2023-03-02 17:54:00,,0816.4,4.97,0.00,23.3,22.0,00.0,31.9,25.1,16.2,0000.0,0007.27,0011.56,0006.79
2023-03-02 17:55:00,,0816.4,5.01,0.00,23.3,22.0,00.0,31.9,25.1,16.7,0000.0,0007.28,0012.46,0006.79
2023-03-02 17:56:00,,0816.4,4.99,0.00,23.3,22.1,00.0,31.9,25.1,15.8,0000.0,0007.27,0012.38,0006.79
2023-03-02 17:57:00,,0816.4,5.02,0.00,23.3,22.1,00.0,31.9,25.2,15.6,0000.0,0007.28,0012.30,0006.79
2023-03-02 17:58:00,,0816.4,4.98,0.00,23.3,22.1,00.0,31.9,25.1,15.6,0000.0,0007.23,0012.09,0006.79
2023-03-02 17:59:00,,0816.4,4.99,0.00,23.3,22.1,00.0,31.9,25.1,16.2,0000.0,0007.23,0012.12,0006.79
